Stanley, ND

1:24 AM CST on February 07, 2016 (GMT -0600)
Stanley

Weather History for K08D - December, 2013

Change the Weather History Date:

Friday, December 6, 2013

  Actual Average (KMOT) Record (KMOT)
Temperature  
Mean Temperature -14 °F 18 °F  
Max Temperature -11 °F 26 °F 66 °F (1939)
Min Temperature -18 °F 10 °F -23 °F (1994)
Degree Days  
Heating Degree Days 80 47  
Month to date heating degree days 275  
Since 1 July heating degree days 2333  
Moisture  
Dew Point -21 °F    
Average Humidity 77    
Maximum Humidity 84    
Minimum Humidity 70    
Precipitation  
Precipitation 0.00 in 0.01 in 0.31 in (1979)
Month to date precipitation 0.08  
Year to date precipitation 16.89  
Sea Level Pressure  
Sea Level Pressure 30.39 in    
Wind  
Wind Speed 11 mph (WNW)    
Max Wind Speed 16 mph    
Max Gust Speed 23 mph    
Visibility 10 miles    
Events Snow    
T = Trace of Precipitation, MM = Missing Value Source: NWS Daily Summary

Daily Weather History Graph

Daily Weather History Graph

Search for Another Location

Airport or City:

Trip Planner

Search our weather history database for the weather conditions in past years. The results will help you decide how hot, cold, wet, or windy it might be!

Date:

Astronomy

Dec. 06, 2013 Rise Set
Actual Time 8:25 AM CST 4:55 PM CST
Civil Twilight 7:49 AM CST 5:31 PM CST
Nautical Twilight 7:10 AM CST 6:11 PM CST
Astronomical Twilight 6:32 AM CST 6:49 PM CST
Moon 11:21 AM CST (12/6) 9:43 PM CST (12/6)
Length of Visible Light 9h 42m
Length of Day
8h 29m
Waxing Crescent, 19% of the Moon is Illuminated
Dec 6
Waxing Crescent
Dec 9
First Quarter
Dec 17
Full
Dec 25
Last Quarter
Jan 1
New

Hourly Weather History & Observations

Time (CST) Temp. Windchill Dew Point Humidity Pressure Visibility Wind Dir Wind Speed Gust Speed Precip Events Conditions
12:15 AM -13.0 °F -28.6 °F -18.4 °F 77% 30.30 in 10.0 mi West 6.9 mph - N/A   Mostly Cloudy
12:35 AM -13.0 °F -28.6 °F -18.4 °F 77% 30.31 in 10.0 mi West 6.9 mph - N/A   Mostly Cloudy
12:55 AM -13.0 °F -33.4 °F -18.4 °F 77% 30.31 in 10.0 mi WNW 11.5 mph - N/A   Scattered Clouds
1:15 AM -14.8 °F -35.6 °F -18.4 °F 84% 30.31 in 10.0 mi WNW 11.5 mph 17.3 mph N/A   Clear
1:35 AM -14.8 °F -32.2 °F -20.2 °F 77% 30.30 in 10.0 mi NW 8.1 mph - N/A   Clear
1:55 AM -16.6 °F -35.7 °F -20.2 °F 84% 30.31 in 10.0 mi WNW 9.2 mph - N/A   Clear
2:15 AM -14.8 °F -35.6 °F -20.2 °F 77% 30.31 in 10.0 mi WNW 11.5 mph - N/A   Clear
2:35 AM -16.6 °F -36.8 °F -20.2 °F 84% 30.31 in 10.0 mi WNW 10.4 mph - N/A   Clear
2:55 AM -16.6 °F -34.4 °F -20.2 °F 84% 30.32 in 10.0 mi WNW 8.1 mph - N/A   Clear
3:15 AM -16.6 °F -36.8 °F -20.2 °F 84% 30.33 in 10.0 mi WNW 10.4 mph - N/A   Clear
3:35 AM -16.6 °F -36.8 °F -20.2 °F 84% 30.33 in 10.0 mi WNW 10.4 mph - N/A   Clear
3:55 AM -16.6 °F -34.4 °F -22.0 °F 76% 30.33 in 10.0 mi West 8.1 mph - N/A   Clear
4:15 AM -16.6 °F -36.8 °F -22.0 °F 76% 30.33 in 10.0 mi WNW 10.4 mph - N/A   Clear
4:35 AM -16.6 °F -36.8 °F -22.0 °F 76% 30.33 in 10.0 mi WNW 10.4 mph - N/A   Clear
4:55 AM -18.4 °F -36.6 °F -22.0 °F 84% 30.34 in 10.0 mi West 8.1 mph - N/A   Clear
5:15 AM -18.4 °F -36.6 °F -23.8 °F 76% 30.34 in 10.0 mi WNW 8.1 mph - N/A   Clear
5:55 AM -18.4 °F -42.1 °F -22.0 °F 84% 30.34 in 10.0 mi WNW 13.8 mph 19.6 mph N/A   Clear
6:15 AM -18.4 °F -41.2 °F -22.0 °F 84% 30.35 in 10.0 mi WNW 12.7 mph - N/A   Clear
6:35 AM -18.4 °F -41.2 °F -23.8 °F 76% 30.35 in 10.0 mi WNW 12.7 mph 17.3 mph N/A   Clear
6:55 AM -18.4 °F -42.1 °F -22.0 °F 84% 30.36 in 10.0 mi WNW 13.8 mph 18.4 mph N/A   Clear
7:15 AM -18.4 °F -42.1 °F -23.8 °F 76% 30.36 in 10.0 mi WNW 13.8 mph - N/A   Clear
7:35 AM -18.4 °F -42.1 °F -22.0 °F 84% 30.36 in 10.0 mi WNW 13.8 mph - N/A   Clear
7:55 AM -18.4 °F -43.7 °F -22.0 °F 84% 30.36 in 10.0 mi WNW 16.1 mph 21.9 mph N/A   Clear
8:15 AM -18.4 °F -43.7 °F -23.8 °F 76% 30.37 in 10.0 mi WNW 16.1 mph 21.9 mph N/A   Clear
8:35 AM -18.4 °F -41.2 °F -23.8 °F 76% 30.38 in 10.0 mi West 12.7 mph 18.4 mph N/A   Clear
8:55 AM -18.4 °F -41.2 °F -23.8 °F 76% 30.38 in 10.0 mi West 12.7 mph 19.6 mph N/A   Clear
9:15 AM -18.4 °F -42.1 °F -22.0 °F 84% 30.39 in 10.0 mi WNW 13.8 mph 19.6 mph N/A   Clear
9:35 AM -16.6 °F -37.9 °F -22.0 °F 76% 30.39 in 10.0 mi WNW 11.5 mph 16.1 mph N/A   Partly Cloudy
9:55 AM -16.6 °F -38.9 °F -22.0 °F 76% 30.40 in 10.0 mi WNW 12.7 mph 18.4 mph N/A   Mostly Cloudy
10:15 AM -16.6 °F -37.9 °F -20.2 °F 84% 30.40 in 10.0 mi WNW 11.5 mph 21.9 mph N/A   Partly Cloudy
10:35 AM -14.8 °F -38.3 °F -20.2 °F 77% 30.41 in 10.0 mi WNW 15.0 mph 20.7 mph N/A   Partly Cloudy
10:55 AM -14.8 °F -36.6 °F -20.2 °F 77% 30.42 in 10.0 mi WNW 12.7 mph - N/A   Scattered Clouds
11:15 AM -13.0 °F -36.0 °F -20.2 °F 70% 30.42 in 10.0 mi WNW 15.0 mph 20.7 mph N/A   Scattered Clouds
11:35 AM -13.0 °F -36.0 °F -18.4 °F 77% 30.42 in 10.0 mi WNW 15.0 mph 21.9 mph N/A   Scattered Clouds
11:55 AM -13.0 °F -36.0 °F -18.4 °F 77% 30.42 in 10.0 mi West 15.0 mph - N/A   Clear
12:15 PM - - - N/A% 30.41 in 10.0 mi West 13.8 mph 18.4 mph N/A   Clear
12:35 PM -11.2 °F -33.7 °F -18.4 °F 70% 30.41 in 10.0 mi WNW 15.0 mph 19.6 mph N/A   Clear
12:55 PM -11.2 °F -32.9 °F -18.4 °F 70% 30.42 in 10.0 mi WNW 13.8 mph 20.7 mph N/A   Clear
1:15 PM -11.2 °F -34.4 °F -18.4 °F 70% 30.41 in 10.0 mi WNW 16.1 mph 23.0 mph N/A   Clear
1:35 PM -11.2 °F -33.7 °F -18.4 °F 70% 30.41 in 10.0 mi WNW 15.0 mph - N/A   Clear
1:55 PM -11.2 °F -34.4 °F -18.4 °F 70% 30.41 in 10.0 mi WNW 16.1 mph 21.9 mph N/A   Clear
2:15 PM -11.2 °F -32.9 °F -18.4 °F 70% 30.41 in 10.0 mi West 13.8 mph 20.7 mph N/A   Clear
2:35 PM -11.2 °F -32.1 °F -18.4 °F 70% 30.41 in 10.0 mi West 12.7 mph 20.7 mph N/A   Clear
2:55 PM -11.2 °F -32.1 °F -18.4 °F 70% 30.41 in 10.0 mi WNW 12.7 mph 19.6 mph N/A   Clear
3:15 PM -11.2 °F -32.1 °F -18.4 °F 70% 30.41 in 10.0 mi WNW 12.7 mph - N/A   Clear
3:35 PM -11.2 °F -33.7 °F -18.4 °F 70% 30.40 in 10.0 mi WNW 15.0 mph 21.9 mph N/A   Clear
3:55 PM -11.2 °F -32.9 °F -18.4 °F 70% 30.41 in 10.0 mi West 13.8 mph 20.7 mph N/A   Clear
4:15 PM -11.2 °F -32.1 °F -18.4 °F 70% 30.41 in 10.0 mi West 12.7 mph 18.4 mph N/A   Clear
4:35 PM -11.2 °F -32.1 °F -18.4 °F 70% 30.42 in 10.0 mi West 12.7 mph 17.3 mph N/A   Clear
4:55 PM -13.0 °F -34.3 °F -18.4 °F 77% 30.42 in 10.0 mi West 12.7 mph 17.3 mph N/A   Clear
6:15 PM -13.0 °F -31.3 °F -20.2 °F 70% 30.43 in 10.0 mi West 9.2 mph - N/A   Clear
6:35 PM -14.8 °F -33.5 °F -20.2 °F 77% 30.43 in 10.0 mi West 9.2 mph - N/A   Clear
6:55 PM -14.8 °F -33.5 °F -20.2 °F 77% 30.43 in 10.0 mi West 9.2 mph - N/A   Clear
7:15 PM -14.8 °F -34.6 °F -20.2 °F 77% 30.43 in 10.0 mi West 10.4 mph 16.1 mph N/A   Clear
7:35 PM -14.8 °F -35.6 °F -20.2 °F 77% 30.43 in 10.0 mi WNW 11.5 mph - N/A   Clear
7:55 PM -16.6 °F -35.7 °F -20.2 °F 84% 30.43 in 10.0 mi WNW 9.2 mph - N/A   Scattered Clouds
8:15 PM -16.6 °F -37.9 °F -20.2 °F 84% 30.44 in 10.0 mi WNW 11.5 mph 17.3 mph N/A Snow Light Snow
8:35 PM -16.6 °F -38.9 °F -22.0 °F 76% 30.44 in 10.0 mi WNW 12.7 mph 17.3 mph N/A   Overcast
8:55 PM -16.6 °F -37.9 °F -22.0 °F 76% 30.43 in 10.0 mi WNW 11.5 mph 18.4 mph N/A   Overcast
9:15 PM -16.6 °F -36.8 °F -22.0 °F 76% 30.44 in 10.0 mi WNW 10.4 mph 17.3 mph N/A   Mostly Cloudy
9:35 PM -16.6 °F -38.9 °F -22.0 °F 76% 30.44 in 10.0 mi WNW 12.7 mph - N/A   Mostly Cloudy
9:55 PM -16.6 °F -39.8 °F -22.0 °F 76% 30.44 in 10.0 mi WNW 13.8 mph 19.6 mph N/A   Overcast
10:15 PM -18.4 °F -40.2 °F -23.8 °F 76% 30.45 in 10.0 mi WNW 11.5 mph 17.3 mph N/A Snow Light Snow
10:35 PM -18.4 °F -41.2 °F -23.8 °F 76% 30.45 in 10.0 mi WNW 12.7 mph 17.3 mph N/A   Overcast
10:55 PM -18.4 °F -41.2 °F -23.8 °F 76% 30.45 in 10.0 mi WNW 12.7 mph 18.4 mph N/A   Overcast
11:15 PM -18.4 °F -41.2 °F -23.8 °F 76% 30.45 in 10.0 mi WNW 12.7 mph 17.3 mph N/A   Mostly Cloudy
11:35 PM -18.4 °F -39.1 °F -23.8 °F 76% 30.46 in 10.0 mi WNW 10.4 mph - N/A Snow Light Snow
11:55 PM -18.4 °F -40.2 °F -23.8 °F 76% 30.46 in 10.0 mi WNW 11.5 mph 17.3 mph N/A   Overcast